Rensselaer, IN

7:40 AM CST on January 18, 2017 (GMT -0600)
Jasper County

Weather History for KRZL - March, 2014

Change the Weather History Date:

Monday, March 17, 2014

  Actual Average (KIKK) Record (KIKK)
Temperature  
Mean Temperature 27 °F -  
Max Temperature 37 °F 47 °F 79 °F (2012)
Min Temperature 17 °F 27 °F 15 °F (2014)
Degree Days  
Heating Degree Days 38    
Moisture  
Dew Point 19 °F    
Average Humidity 71    
Maximum Humidity 87    
Minimum Humidity 55    
Precipitation  
Precipitation 0.00 in - - ()
Sea Level Pressure  
Sea Level Pressure 29.94 in    
Wind  
Wind Speed 10 mph (East)    
Max Wind Speed 17 mph    
Max Gust Speed 17 mph    
Visibility 10 miles    
Events      
Averages and records for this station are not official NWS values.
T = Trace of Precipitation, MM = Missing Value Source: NWS Daily Summary

Daily Weather History Graph

Daily Weather History Graph

Search for Another Location

Airport or City:

Trip Planner

Search our weather history database for the weather conditions in past years. The results will help you decide how hot, cold, wet, or windy it might be!

Date:

Astronomy

Mar. 17, 2014 Rise Set
Actual Time 6:57 AM CDT 6:57 PM CDT
Civil Twilight 6:29 AM CDT 7:25 PM CDT
Nautical Twilight 5:57 AM CDT 7:57 PM CDT
Astronomical Twilight 5:25 AM CDT 8:29 PM CDT
Moon 8:14 PM CDT (3/17) 7:11 AM CDT (3/17)
Length of Visible Light 12h 55m
Length of Day
12h 00m
Full, 99% of the Moon is Illuminated
Mar 17
Full
Mar 23
Last Quarter
Mar 30
New
Apr 7
First Quarter
Apr 15
Full

Hourly Weather History & Observations

Time (CDT) Temp. Windchill Dew Point Humidity Pressure Visibility Wind Dir Wind Speed Gust Speed Precip Events Conditions
12:15 AM 21.2 °F 10.1 °F 14.0 °F 74% 30.11 in 10.0 mi NNE 10.4 mph - N/A   Clear
12:35 AM 21.2 °F 10.1 °F 14.0 °F 74% 30.10 in 10.0 mi NNE 10.4 mph - N/A   Clear
12:55 AM 21.2 °F 10.1 °F 12.2 °F 68% 30.11 in 10.0 mi North 10.4 mph - N/A   Clear
1:15 AM 21.2 °F 9.5 °F 12.2 °F 68% 30.09 in 10.0 mi NNE 11.5 mph - N/A   Clear
1:35 AM 21.2 °F 9.5 °F 12.2 °F 68% 30.08 in 10.0 mi NNE 11.5 mph - N/A   Clear
1:55 AM 21.2 °F 8.9 °F 12.2 °F 68% 30.07 in 10.0 mi NE 12.7 mph - N/A   Clear
2:15 AM 21.2 °F 9.5 °F 12.2 °F 68% 30.07 in 10.0 mi NNE 11.5 mph - N/A   Clear
2:35 AM 19.4 °F 7.9 °F 12.2 °F 74% 30.06 in 10.0 mi NNE 10.4 mph - N/A   Clear
2:55 AM 19.4 °F 6.6 °F 12.2 °F 74% 30.05 in 10.0 mi NE 12.7 mph - N/A   Clear
3:15 AM 19.4 °F 7.2 °F 12.2 °F 74% 30.04 in 10.0 mi NE 11.5 mph - N/A   Clear
3:35 AM 19.4 °F 6.6 °F 10.4 °F 68% 30.03 in 10.0 mi NE 12.7 mph 16.1 mph N/A   Clear
3:55 AM 19.4 °F 7.2 °F 10.4 °F 68% 30.02 in 10.0 mi NE 11.5 mph - N/A   Clear
4:15 AM 19.4 °F 7.9 °F 10.4 °F 68% 30.01 in 10.0 mi NE 10.4 mph - N/A   Clear
4:35 AM 19.4 °F 7.9 °F 10.4 °F 68% 30.02 in 10.0 mi NE 10.4 mph - N/A   Clear
4:55 AM 17.6 °F 5.7 °F 10.4 °F 73% 30.01 in 10.0 mi ENE 10.4 mph - N/A   Clear
5:15 AM 17.6 °F 6.4 °F 10.4 °F 73% 30.01 in 10.0 mi NE 9.2 mph - N/A   Clear
5:35 AM 17.6 °F 6.4 °F 10.4 °F 73% 30.01 in 10.0 mi NE 9.2 mph - N/A   Clear
5:55 AM 17.6 °F 5.7 °F 10.4 °F 73% 30.00 in 10.0 mi ENE 10.4 mph - N/A   Clear
6:15 AM 17.6 °F 5.7 °F 10.4 °F 73% 29.99 in 10.0 mi ENE 10.4 mph - N/A   Clear
6:35 AM 17.6 °F 5.0 °F 10.4 °F 73% 29.99 in 10.0 mi ENE 11.5 mph - N/A   Clear
6:55 AM 17.6 °F 5.0 °F 10.4 °F 73% 29.99 in 10.0 mi ENE 11.5 mph - N/A   Clear
7:15 AM 17.6 °F 2.2 °F 10.4 °F 73% 29.99 in 10.0 mi East 17.3 mph - N/A   Clear
7:35 AM 19.4 °F 6.0 °F 10.4 °F 68% 30.00 in 10.0 mi East 13.8 mph - N/A   Clear
7:55 AM 19.4 °F 6.6 °F 10.4 °F 68% 29.99 in 10.0 mi East 12.7 mph - N/A   Clear
8:15 AM 19.4 °F 6.6 °F 10.4 °F 68% 29.99 in 10.0 mi East 12.7 mph - N/A   Clear
8:35 AM 21.2 °F 8.9 °F 12.2 °F 68% 30.00 in 10.0 mi East 12.7 mph 17.3 mph N/A   Clear
8:55 AM 21.2 °F 8.9 °F 12.2 °F 68% 29.99 in 10.0 mi East 12.7 mph - N/A   Clear
9:15 AM 21.2 °F 8.9 °F 12.2 °F 68% 29.99 in 10.0 mi East 12.7 mph - N/A   Clear
9:35 AM 23.0 °F 11.1 °F 12.2 °F 63% 29.98 in 10.0 mi East 12.7 mph - N/A   Clear
9:55 AM 23.0 °F 11.1 °F 12.2 °F 63% 29.97 in 10.0 mi East 12.7 mph - N/A   Clear
10:15 AM 24.8 °F 12.9 °F 14.0 °F 64% 29.97 in 10.0 mi ESE 13.8 mph 17.3 mph N/A   Clear
10:35 AM 26.6 °F 18.2 °F 14.0 °F 59% 29.96 in 10.0 mi East 8.1 mph 16.1 mph N/A   Clear
10:55 AM 26.6 °F 16.2 °F 14.0 °F 59% 29.97 in 10.0 mi ESE 11.5 mph 16.1 mph N/A   Clear
11:15 AM 28.4 °F 19.1 °F 14.0 °F 55% 29.96 in 10.0 mi ESE 10.4 mph - N/A   Clear
11:35 AM 28.4 °F 20.4 °F 15.8 °F 59% 29.95 in 10.0 mi East 8.1 mph - N/A   Clear
11:55 AM 30.2 °F 25.4 °F 17.6 °F 60% 29.95 in 10.0 mi East 4.6 mph - N/A   Clear
12:15 PM 30.2 °F 23.4 °F 17.6 °F 60% 29.94 in 10.0 mi East 6.9 mph - N/A   Clear
12:35 PM 32.0 °F 24.2 °F 19.4 °F 60% 29.94 in 10.0 mi East 9.2 mph - N/A   Scattered Clouds
12:55 PM 32.0 °F 25.6 °F 21.2 °F 64% 29.93 in 10.0 mi ESE 6.9 mph - N/A   Scattered Clouds
1:15 PM 32.0 °F 26.4 °F 21.2 °F 64% 29.91 in 10.0 mi SE 5.8 mph - N/A   Scattered Clouds
1:35 PM 32.0 °F 26.4 °F 21.2 °F 64% 29.90 in 10.0 mi SE 5.8 mph - N/A   Clear
1:55 PM 33.8 °F 27.7 °F 21.2 °F 60% 29.88 in 10.0 mi SE 6.9 mph - N/A   Clear
2:15 PM 33.8 °F 27.7 °F 23.0 °F 65% 29.87 in 10.0 mi SE 6.9 mph - N/A   Clear
2:35 PM 33.8 °F 27.7 °F 23.0 °F 65% 29.86 in 10.0 mi SSE 6.9 mph - N/A   Clear
2:55 PM 35.6 °F 29.9 °F 23.0 °F 60% 29.86 in 10.0 mi ESE 6.9 mph - N/A   Clear
3:15 PM 35.6 °F 31.7 °F 23.0 °F 60% 29.86 in 10.0 mi SE 4.6 mph - N/A   Clear
3:35 PM 35.6 °F 31.7 °F 23.0 °F 60% 29.85 in 10.0 mi SE 4.6 mph - N/A   Clear
3:55 PM 35.6 °F 28.6 °F 24.8 °F 65% 29.85 in 10.0 mi East 9.2 mph - N/A   Clear
4:15 PM 37.4 °F 31.4 °F 24.8 °F 60% 29.85 in 10.0 mi East 8.1 mph - N/A   Clear
4:35 PM 37.4 °F 30.3 °F 26.6 °F 65% 29.84 in 10.0 mi ESE 10.4 mph - N/A   Clear
4:55 PM 37.4 °F 30.8 °F 26.6 °F 65% 29.84 in 10.0 mi SE 9.2 mph - N/A   Clear
5:15 PM 35.6 °F 28.0 °F 26.6 °F 70% 29.84 in 10.0 mi SE 10.4 mph - N/A   Clear
5:35 PM 35.6 °F 28.0 °F 26.6 °F 70% 29.83 in 10.0 mi SE 10.4 mph - N/A   Clear
5:55 PM 35.6 °F 28.6 °F 26.6 °F 70% 29.83 in 10.0 mi SE 9.2 mph - N/A   Clear
6:15 PM 35.6 °F 27.5 °F 26.6 °F 70% 29.84 in 10.0 mi SE 11.5 mph - N/A   Clear
6:35 PM 33.8 °F 26.4 °F 26.6 °F 75% 29.85 in 10.0 mi SE 9.2 mph - N/A   Clear
6:55 PM 33.8 °F 26.4 °F 26.6 °F 75% 29.84 in 10.0 mi SE 9.2 mph - N/A   Clear
7:15 PM 32.0 °F 25.6 °F 26.6 °F 80% 29.84 in 10.0 mi SE 6.9 mph - N/A   Clear
7:35 PM 32.0 °F 25.6 °F 26.6 °F 80% 29.85 in 10.0 mi SE 6.9 mph - N/A   Clear
7:55 PM 32.0 °F 24.8 °F 28.4 °F 87% 29.85 in 10.0 mi SE 8.1 mph - N/A   Clear
8:15 PM 32.0 °F 25.6 °F 28.4 °F 87% 29.85 in 10.0 mi SE 6.9 mph - N/A   Clear
8:35 PM 32.0 °F 24.2 °F 28.4 °F 87% 29.85 in 10.0 mi SE 9.2 mph - N/A   Clear
8:55 PM 32.0 °F 25.6 °F 28.4 °F 87% 29.86 in 10.0 mi ESE 6.9 mph - N/A   Clear
9:15 PM 32.0 °F 24.8 °F 28.4 °F 87% 29.86 in 10.0 mi SE 8.1 mph - N/A   Clear
9:35 PM 32.0 °F 24.8 °F 28.4 °F 87% 29.85 in 10.0 mi ESE 8.1 mph - N/A   Clear
9:55 PM 32.0 °F 24.8 °F 28.4 °F 87% 29.86 in 10.0 mi ESE 8.1 mph - N/A   Clear
10:15 PM 32.0 °F 25.6 °F 28.4 °F 87% 29.86 in 10.0 mi SE 6.9 mph - N/A   Clear
10:35 PM 32.0 °F 25.6 °F 28.4 °F 87% 29.86 in 10.0 mi SE 6.9 mph - N/A   Clear
10:55 PM 32.0 °F 25.6 °F 28.4 °F 87% 29.86 in 10.0 mi SE 6.9 mph - N/A   Clear
11:15 PM 32.0 °F 24.2 °F 28.4 °F 87% 29.85 in 10.0 mi SE 9.2 mph - N/A   Clear
11:35 PM 32.0 °F 26.4 °F 28.4 °F 87% 29.86 in 10.0 mi SE 5.8 mph - N/A   Clear
11:55 PM 32.0 °F 24.8 °F 28.4 °F 87% 29.86 in 10.0 mi SE 8.1 mph - N/A   Clear